Drummond Island, MI

8:27 PM EST on December 05, 2016 (GMT -0500)
Drummond Island

Weather History for KDRM - October, 2012

Change the Weather History Date:

Friday, October 26, 2012

  Actual Average (KCIU) Record (KCIU)
Temperature  
Mean Temperature 50 °F -  
Max Temperature 61 °F 47 °F 66 °F (1989)
Min Temperature 40 °F 31 °F 19 °F (1990)
Degree Days  
Heating Degree Days 14    
Moisture  
Dew Point 37 °F    
Average Humidity 74    
Maximum Humidity 97    
Minimum Humidity 50    
Precipitation  
Precipitation 0.00 in - - ()
Sea Level Pressure  
Sea Level Pressure 30.08 in    
Wind  
Wind Speed 8 mph (West)    
Max Wind Speed 15 mph    
Max Gust Speed 24 mph    
Visibility 10 miles    
Events Rain    
Averages and records for this station are not official NWS values.
T = Trace of Precipitation, MM = Missing Value Source: NWS Daily Summary

Daily Weather History Graph

Daily Weather History Graph

Search for Another Location

Airport or City:

Trip Planner

Search our weather history database for the weather conditions in past years. The results will help you decide how hot, cold, wet, or windy it might be!

Date:

Astronomy

Oct. 26, 2012 Rise Set
Actual Time 8:07 AM EDT 6:29 PM EDT
Civil Twilight 7:36 AM EDT 7:00 PM EDT
Nautical Twilight 7:01 AM EDT 7:35 PM EDT
Astronomical Twilight 6:27 AM EDT 8:09 PM EDT
Moon 4:51 PM EDT (10/26) 4:54 AM EDT (10/26)
Length of Visible Light 11h 23m
Length of Day
10h 21m
Waxing Gibbous, 91% of the Moon is Illuminated
Oct 26
Waxing Gibbous
Oct 29
Full
Nov 6
Last Quarter
Nov 13
New
Nov 20
First Quarter

Hourly Weather History & Observations

Time (EDT) Temp. Windchill Dew Point Humidity Pressure Visibility Wind Dir Wind Speed Gust Speed Precip Events Conditions
12:15 AM 61.0 °F - 57.2 °F 87% 29.65 in 10.0 mi WSW 10.4 mph - N/A   Overcast
12:36 AM 58.8 °F - 57.2 °F 94% 29.68 in 10.0 mi West 5.8 mph - N/A   Drizzle
12:55 AM 52.2 °F - 50.5 °F 94% 29.70 in 5.0 mi WNW 10.4 mph 18.4 mph N/A Rain Rain
1:16 AM 50.0 °F - 49.1 °F 97% 29.75 in 7.0 mi WNW 9.2 mph 16.1 mph N/A Rain Light Rain
1:36 AM 48.2 °F - 47.1 °F 96% 29.74 in 7.0 mi WNW 9.2 mph 17.3 mph N/A Rain Rain
2:16 AM 46.8 °F - 45.5 °F 95% 29.77 in 4.0 mi WNW 6.9 mph 24.2 mph N/A Rain Heavy Rain
2:36 AM 46.6 °F - 45.5 °F 96% 29.81 in 7.0 mi West 6.9 mph 24.2 mph N/A Rain Rain
2:55 AM 46.0 °F 41.9 °F 45.0 °F 96% 29.83 in 7.0 mi WNW 8.1 mph 21.9 mph N/A Rain Light Rain
3:16 AM 45.5 °F 39.6 °F 43.9 °F 94% 29.85 in 10.0 mi West 12.7 mph 17.3 mph N/A   Overcast
3:35 AM 45.5 °F 38.9 °F 43.0 °F 91% 29.85 in 10.0 mi WNW 15.0 mph 21.9 mph N/A   Overcast
3:55 AM 45.5 °F 40.8 °F 43.2 °F 92% 29.87 in 10.0 mi WNW 9.2 mph 17.3 mph N/A   Overcast
4:16 AM 45.0 °F 41.8 °F 42.4 °F 91% 29.89 in 10.0 mi West 5.8 mph 19.6 mph N/A   Overcast
4:35 AM 45.0 °F 39.3 °F 42.3 °F 90% 29.90 in 10.0 mi WNW 11.5 mph 21.9 mph N/A   Overcast
4:55 AM 44.6 °F 38.8 °F 41.7 °F 90% 29.91 in 10.0 mi WNW 11.5 mph 18.4 mph N/A   Overcast
5:16 AM 44.4 °F 38.6 °F 41.0 °F 88% 29.92 in 10.0 mi WNW 11.5 mph 21.9 mph N/A   Overcast
5:35 AM 44.2 °F 38.8 °F 40.3 °F 86% 29.93 in 10.0 mi WNW 10.4 mph 20.7 mph N/A   Overcast
5:56 AM 43.7 °F 38.6 °F 39.7 °F 86% 29.95 in 10.0 mi West 9.2 mph 16.1 mph N/A   Mostly Cloudy
6:16 AM 43.5 °F 38.9 °F 39.0 °F 84% 29.96 in 10.0 mi West 8.1 mph 18.4 mph N/A   Mostly Cloudy
6:35 AM 42.8 °F 39.3 °F 39.2 °F 87% 29.98 in 10.0 mi West 5.8 mph - N/A   Overcast
6:56 AM 42.1 °F 38.4 °F 39.0 °F 89% 29.99 in 10.0 mi West 5.8 mph - N/A   Overcast
7:16 AM 41.9 °F 36.3 °F 38.3 °F 87% 30.00 in 10.0 mi West 9.2 mph - N/A   Mostly Cloudy
7:35 AM 41.2 °F 36.0 °F 38.5 °F 90% 30.00 in 10.0 mi West 8.1 mph 16.1 mph N/A   Scattered Clouds
7:56 AM 40.8 °F 36.9 °F 38.1 °F 90% 30.02 in 10.0 mi West 5.8 mph - N/A   Mostly Cloudy
8:15 AM 40.6 °F 36.7 °F 37.9 °F 90% 30.03 in 10.0 mi WNW 5.8 mph - N/A   Overcast
8:56 AM 40.1 °F 34.1 °F 36.5 °F 87% 30.06 in 10.0 mi West 9.2 mph - N/A   Scattered Clouds
9:56 AM 42.6 °F 37.2 °F 34.7 °F 74% 30.10 in 10.0 mi West 9.2 mph - N/A   Clear
10:15 AM 43.3 °F 38.1 °F 34.3 °F 71% 30.10 in 10.0 mi West 9.2 mph - N/A   Clear
10:36 AM 44.1 °F 39.0 °F 33.6 °F 67% 30.12 in 10.0 mi West 9.2 mph - N/A   Clear
10:56 AM 44.8 °F 39.9 °F 32.9 °F 63% 30.13 in 10.0 mi West 9.2 mph 16.1 mph N/A   Clear
11:15 AM 45.3 °F 40.6 °F 33.1 °F 62% 30.13 in 10.0 mi West 9.2 mph 17.3 mph N/A   Clear
11:36 AM 45.9 °F 40.8 °F 32.9 °F 61% 30.13 in 10.0 mi West 10.4 mph 19.6 mph N/A   Clear
11:56 AM 46.2 °F 41.7 °F 32.5 °F 59% 30.14 in 10.0 mi WNW 9.2 mph 17.3 mph N/A   Clear
12:15 PM 46.4 °F 41.1 °F 32.2 °F 58% 30.15 in 10.0 mi West 11.5 mph - N/A   Clear
12:36 PM 47.5 °F - 32.0 °F 55% 30.15 in 10.0 mi West 6.9 mph - N/A   Clear
12:55 PM 47.8 °F - 31.5 °F 53% 30.15 in 10.0 mi West 8.1 mph 17.3 mph N/A   Scattered Clouds
1:15 PM 46.8 °F - 31.1 °F 55% 30.16 in 10.0 mi West 8.1 mph - N/A   Clear
1:36 PM 47.5 °F - 30.0 °F 51% 30.17 in 10.0 mi West 6.9 mph 17.3 mph N/A   Clear
1:55 PM 46.6 °F - 31.3 °F 55% 30.18 in 10.0 mi WSW 5.8 mph - N/A   Scattered Clouds
2:15 PM 48.4 °F - 31.1 °F 51% 30.17 in 10.0 mi West 5.8 mph - N/A   Scattered Clouds
2:36 PM 47.3 °F - 30.2 °F 52% 30.17 in 10.0 mi West 8.1 mph - N/A   Mostly Cloudy
2:55 PM 47.5 °F - 30.9 °F 53% 30.17 in 10.0 mi WNW 8.1 mph - N/A   Scattered Clouds
3:16 PM 48.4 °F - 30.9 °F 51% 30.17 in 10.0 mi West 6.9 mph - N/A   Clear
3:36 PM 49.1 °F - 31.1 °F 50% 30.18 in 10.0 mi West 5.8 mph - N/A   Clear
3:55 PM 47.1 °F - 30.9 °F 53% 30.18 in 10.0 mi West 3.5 mph - N/A   Clear
4:16 PM 46.6 °F - 31.3 °F 55% 30.18 in 10.0 mi WSW 5.8 mph - N/A   Scattered Clouds
4:36 PM 46.8 °F - 32.9 °F 59% 30.18 in 10.0 mi WSW 4.6 mph - N/A   Scattered Clouds
4:55 PM 46.8 °F - 32.9 °F 59% 30.19 in 10.0 mi WSW 6.9 mph - N/A   Scattered Clouds
5:16 PM 46.8 °F - 32.9 °F 59% 30.19 in 10.0 mi WSW 6.9 mph - N/A   Clear
5:36 PM 45.5 °F 40.8 °F 32.9 °F 61% 30.20 in 10.0 mi SW 9.2 mph - N/A   Clear
5:55 PM 44.8 °F 41.0 °F 33.1 °F 64% 30.20 in 10.0 mi WSW 6.9 mph - N/A   Clear
6:16 PM 43.9 °F 39.3 °F 33.4 °F 67% 30.21 in 10.0 mi WSW 8.1 mph - N/A   Clear
6:35 PM 43.0 °F 38.2 °F 33.8 °F 70% 30.22 in 10.0 mi WSW 8.1 mph - N/A   Clear
6:55 PM 42.8 °F 38.6 °F 34.0 °F 71% 30.22 in 10.0 mi WSW 6.9 mph - N/A   Clear
7:16 PM 42.3 °F 39.4 °F 33.8 °F 72% 30.23 in 10.0 mi West 4.6 mph - N/A   Clear
7:35 PM 42.3 °F 40.5 °F 34.0 °F 72% 30.23 in 10.0 mi West 3.5 mph - N/A   Clear
7:55 PM 42.3 °F 38.6 °F 34.2 °F 73% 30.24 in 10.0 mi West 5.8 mph - N/A   Clear
8:16 PM 42.6 °F 39.0 °F 34.3 °F 73% 30.24 in 10.0 mi West 5.8 mph - N/A   Clear
8:35 PM 42.1 °F 39.2 °F 34.7 °F 75% 30.24 in 10.0 mi West 4.6 mph - N/A   Clear
8:56 PM 41.9 °F 40.0 °F 34.7 °F 76% 30.24 in 10.0 mi West 3.5 mph - N/A   Clear
9:16 PM 41.9 °F 40.0 °F 34.5 °F 75% 30.24 in 10.0 mi West 3.5 mph - N/A   Clear
9:35 PM 41.7 °F - 34.7 °F 76% 30.24 in 10.0 mi Calm Calm - N/A   Clear
9:56 PM 41.9 °F 38.2 °F 34.7 °F 76% 30.24 in 10.0 mi WNW 5.8 mph - N/A   Clear
10:16 PM 41.9 °F 39.0 °F 34.9 °F 76% 30.24 in 10.0 mi NW 4.6 mph - N/A   Scattered Clouds
10:35 PM 42.3 °F 40.5 °F 34.7 °F 75% 30.24 in 10.0 mi NW 3.5 mph - N/A   Mostly Cloudy
10:56 PM 41.2 °F - 34.2 °F 76% 30.24 in 10.0 mi Calm Calm - N/A   Scattered Clouds
11:16 PM 41.0 °F 39.0 °F 32.4 °F 71% 30.24 in 10.0 mi NNW 3.5 mph - N/A   Clear
11:35 PM 40.3 °F - 32.0 °F 72% 30.25 in 10.0 mi Calm Calm - N/A   Clear
11:56 PM 41.0 °F - 31.6 °F 69% 30.25 in 10.0 mi Calm Calm - N/A   Clear